Terminal Aerodrome Forecast
Issued by NWS Knoxville/Tri Cities, TN

Home | Current Version | Previous Version | Text Only | Print | Product List | Glossary On
Versions: 1 2 3 4 5 6 7 8 9 10 11 12 13 14 15 16 17 18 19 20 21 22 23 24 25 26 27 28 29 30 31 32 33 34 35 36 37 38 39 40 41 42 43 44 45 46 47 48 49 50
000
FTUS44 KMRX 161124
TAFCHA
TAF
KCHA 161124Z 1612/1712 00000KT 1/4SM FG VV002
      TEMPO 1612/1614 1SM BR OVC006
     FM161430 30004KT 5SM BR BKN009 OVC025
     FM161600 32006KT P6SM BKN035
     FM162000 30007KT P6SM BKN050
     FM170100 34005KT P6SM SCT120 BKN250=

USA.gov is the U.S. government's official web portal to all federal, state and local government web resources and services.